Presure
216 226 217 225 216 218 192 213 205 203 192 202 200 202 201 201 200 205 212 228 216 201 199 195 195 191 192 188 190 185 180 143 181 117 185 152 120 128 132 133 133 117 107 98 110
231 230 229 220 218 213 212 209 199 208 201 204 208 203 209 196 206 203 205 210 218 220 208 196 192 198 186 189 189 190 180 146 189 122 155 129 113 110 122 131 136 123 122 131 112
217 214 212 214 220 219 218 219 216 212 208 206 207 205 199 211 198 197 216 209 204 211 223 218 197 192 197 189 189 183 187 190 191 131 130 119 184 106 126 111 121 132 129 113 126
197 196 187 198 201 198 199 200 207 219 213 207 200 195 193 196 206 207 208 203 215 204 214 213 210 200 192 196 189 186 183 186 189 197 119 132 106 114 138 154 117 121 121 136 127
193 196 197 198 200 200 199 200 200 200 202 201 211 203 196 193 199 215 195 229 206 215 201 209 219 289 209 191 197 187 191 177 187 192 176 225 132 115 113 132 143 121 130 116 127
211 214 218 229 223 229 219 209 205 198 199 201 201 200 198 192 201 210 204 214 226 204 213 214 207 226 264 201 195 196 190 186 183 187 100 178 115 168 130 140 119 139 102 121 129
206 210 215 229 238 237 234 235 234 238 240 248 203 197 205 201 214 206 208 202 225 227 202 219 220 205 252 213 202 188 192 192 195 191 189 109 223 118 130 134 136 118 156 94 111
197 195 201 211 215 215 222 218 222 225 232 232 240 257 215 202 205 211 213 209 207 226 224 210 220 220 206 262 208 200 189 198 188 198 170 188 183 216 185 175 132 130 114 129 131
214 210 210 209 206 195 205 220 209 247 228 219 218 232 249 252 209 208 212 210 204 217 249 214 213 213 220 225 261 212 198 196 195 196 191 183 184 134 169 195 165 127 102 121 120
206 207 202 196 211 204 223 201 229 236 234 217 248 211 241 238 243 254 211 212 210 204 226 221 209 215 217 223 235 239 198 201 191 205 181 177 182 192 176 205 181 189 161 144 128
207 208 210 219 217 226 219 183 225 253 245 249 253 235 261 282 242 257 261 217 212 217 208 224 218 210 209 210 208 208 256 207 205 196 208 199 185 176 187 174 194 134 189 123 137
199 214 212 207 216 209 221 226 245 250 261 261 293 306 321 335 356 266 263 256 217 215 211 216 219 207 200 206 215 225 234 256 206 204 188 200 194 179 188 186 197 210 163 188 180
194 212 195 213 220 222 233 240 244 257 279 300 345 377 455 467 379 356 292 260 257 214 216 206 212 212 212 213 210 204 223 227 249 211 201 196 205 186 181 179 178 190 198 187 115
210 207 203 224 226 221 225 253 252 264 287 341 389 452 463 485 452 345 348 278 268 250 210 214 205 218 229 217 221 212 208 216 227 256 213 202 200 193 196 177 189 180 188 192 187
207 202 220 208 224 223 241 255 258 270 288 361 463 412 420 451 444 344 350 277 273 261 237 210 213 209 225 220 211 213 205 209 220 231 238 221 207 196 193 205 197 180 181 193 196
210 204 217 218 228 228 254 254 254 259 296 333 419 383 395 396 432 357 334 293 272 264 256 219 211 213 207 213 215 210 214 206 218 224 242 251 224 202 193 192 200 189 187 182 179
202 211 218 223 221 235 249 251 245 233 293 334 429 371 395 366 418 347 323 320 275 269 255 235 212 214 212 217 220 216 216 215 229 227 230 202 243 204 205 202 184 203 191 193 181
203 204 215 224 220 238 240 237 246 268 300 319 442 360 387 364 381 328 321 328 284 259 250 252 228 210 203 214 213 206 204 209 213 216 217 263 268 84 250 200 195 188 173 197 187
210 208 215 218 224 240 234 231 254 266 287 305 372 414 395 358 365 327 310 310 286 258 246 254 237 215 201 207 214 208 209 204 206 218 216 222 262 259 239 265 198 199 198 175 190
203 200 215 214 227 242 233 230 264 259 276 302 315 430 381 370 352 333 314 307 296 274 255 244 242 224 205 205 211 216 211 203 207 217 220 218 223 261 254 234 247 235 202 195 181
203 210 220 223 234 230 243 232 259 270 271 311 323 413 426 373 354 323 295 302 303 279 265 247 242 234 217 203 201 208 208 210 211 219 216 214 215 234 263 247 251 186 269 208 192
207 210 220 225 223 229 238 233 253 262 269 291 306 316 430 376 362 331 290 319 307 288 264 253 237 238 225 208 204 204 210 207 213 212 207 209 213 225 244 251 238 247 240 263 221
205 221 226 216 229 227 243 237 250 254 284 278 293 307 330 405 363 347 305 309 309 292 275 263 243 237 233 216 203 203 201 204 215 209 202 213 207 230 207 231 248 234 244 241 255
228 230 235 233 236 235 239 241 253 261 271 272 294 308 298 406 376 349 335 286 312 298 283 275 252 242 240 227 217 212 211 207 206 213 203 199 194 199 210 211 233 247 232 237 245
215 222 227 234 233 232 244 233 259 260 268 277 286 301 288 304 456 375 343 327 281 301 288 273 268 253 246 236 224 219 210 207 202 200 198 202 204 212 206 208 209 227 249 238 230
210 215 222 229 230 241 247 264 272 262 266 278 284 293 298 282 309 419 359 347 321 280 293 283 271 259 250 242 234 226 217 210 209 198 197 202 201 214 209 206 207 203 222 241 240
215 214 221 227 225 235 241 274 268 261 287 277 287 285 297 315 291 353 424 366 341 319 291 287 274 263 251 248 240 218 225 221 210 209 207 195 200 199 203 196 200 203 203 211 238
Wind_Speed
62 54 57 53 54 51 57 53 56 57 57 56 57 56 56 57 58 58 62 61 66 70 68 67 65 65 61 61 60 61 52 78 56 61 57 70 50 54 59 62 58 50 46 27 39
47 46 47 49 50 51 52 54 57 58 57 58 58 58 55 58 58 58 63 60 64 67 71 69 68 66 65 64 62 58 60 62 58 64 64 67 52 47 55 61 62 53 50 50 44
45 45 45 46 47 48 51 54 57 58 58 57 56 55 58 56 60 59 63 64 65 66 66 72 71 69 68 67 66 64 57 63 58 70 72 62 61 48 61 53 53 54 53 49 53
49 50 54 51 51 52 52 53 54 57 58 59 57 58 57 59 57 58 68 63 66 66 67 67 73 72 71 69 70 65 65 66 63 58 68 74 54 54 71 57 53 51 57 61 53
53 54 55 55 56 56 56 58 58 59 59 59 61 62 59 58 63 57 69 57 66 67 69 69 67 60 75 73 72 66 69 75 67 58 61 52 74 60 54 66 68 56 64 54 56
52 53 55 56 59 59 62 63 64 64 64 63 65 64 62 61 67 60 62 60 60 67 69 70 69 67 68 76 71 75 73 73 71 63 65 63 66 67 71 69 60 76 52 59 58
51 52 53 52 53 57 58 60 61 62 64 64 70 69 67 73 68 65 62 67 59 63 68 70 69 69 66 80 77 74 75 75 70 64 63 65 57 72 69 74 76 60 69 40 55
57 56 57 57 56 59 60 63 64 63 67 67 67 67 69 77 71 70 67 66 65 61 68 70 69 68 70 64 82 80 77 74 74 69 80 66 67 59 68 73 65 71 54 65 67
51 54 54 55 59 61 65 64 67 60 70 71 65 70 71 65 78 75 73 71 71 66 61 71 71 71 69 70 67 80 77 77 80 73 74 72 72 66 71 71 68 72 56 64 63
53 52 56 57 58 60 60 68 62 63 67 75 72 65 78 75 69 78 78 77 73 73 66 68 73 72 69 69 66 71 81 82 79 77 67 78 74 73 79 71 77 74 70 83 69
56 57 58 57 58 59 59 64 65 69 70 76 75 76 73 70 74 78 81 82 78 75 67 66 74 67 69 73 78 82 74 84 84 80 79 76 78 82 79 74 77 81 75 70 82
57 58 57 61 61 64 64 66 68 72 71 78 78 78 75 75 67 90 83 85 82 74 77 74 62 74 81 80 77 77 73 73 88 84 79 82 79 85 82 74 77 76 74 79 75
58 57 60 61 64 65 68 71 75 80 81 80 81 74 54 51 67 67 88 82 86 82 78 72 69 82 82 81 78 72 74 76 76 89 87 81 81 82 82 81 85 78 82 83 70
58 59 61 61 63 68 71 78 79 81 84 79 68 38 29 31 44 66 69 87 89 86 80 76 82 77 78 79 77 77 77 78 78 76 89 90 83 85 87 89 83 84 84 86 85
58 62 61 65 67 72 79 79 77 80 84 75 39 30 17 20 36 64 68 83 83 88 89 74 80 77 74 72 81 75 79 78 78 77 77 95 86 81 90 88 84 90 89 88 89
61 64 65 69 71 76 79 78 74 80 80 76 35 25 16 20 35 54 65 87 83 90 91 84 83 81 77 81 80 82 79 79 79 79 80 75 91 91 92 92 90 94 94 92 93
62 65 68 70 72 80 78 77 76 61 81 73 28 22 15 23 27 58 69 84 86 84 85 86 82 79 81 81 81 79 76 77 75 75 64 55 86 100 99 87 92 93 98 94 92
65 67 71 73 75 80 77 78 76 76 81 72 26 22 21 28 32 61 68 74 84 75 79 87 87 81 81 78 77 80 77 78 73 71 71 68 74 48 93 89 100 99 90 88 96
71 72 75 77 79 78 77 74 68 74 78 70 50 18 24 36 43 62 66 70 87 80 82 90 88 88 86 87 86 81 81 74 83 80 85 80 75 85 87 86 104 100 98 97 100
72 73 76 75 80 77 73 70 72 71 77 66 57 18 20 33 46 61 67 70 82 88 88 87 90 88 88 88 85 83 80 90 86 78 74 77 77 75 79 89 95 103 104 102 105
77 79 81 80 78 76 77 70 75 73 72 67 57 26 23 34 45 60 65 72 80 90 89 89 93 95 93 89 88 87 84 85 85 83 78 79 78 82 76 81 85 73 87 111 107
81 81 81 77 76 75 76 71 74 76 69 71 57 46 19 31 45 58 63 70 79 88 90 95 95 97 96 98 96 92 89 91 93 77 79 80 93 76 62 77 86 86 93 88 113
80 80 79 76 78 77 79 72 73 71 76 65 58 47 47 31 44 54 64 69 78 87 91 96 99 99 100 96 100 98 97 91 86 86 82 80 91 66 74 73 79 85 87 92 91
79 80 80 79 80 81 79 79 78 73 73 63 61 51 35 21 35 50 61 67 76 84 91 95 102 103 104 103 104 102 96 94 87 85 77 84 96 73 75 79 75 79 86 88 90
80 82 84 84 84 83 85 75 80 73 71 69 61 52 35 32 29 47 58 68 72 82 88 92 101 105 105 106 106 104 97 95 90 85 93 87 97 81 78 80 79 77 78 86 89
82 85 87 88 89 89 88 86 80 74 73 71 61 52 45 29 35 34 53 64 74 77 86 93 98 106 107 107 107 106 101 98 97 96 90 92 99 84 71 77 85 85 80 79 84
89 89 94 97 93 93 91 84 80 76 79 70 63 56 51 51 30 26 37 62 70 79 84 91 97 105 109 110 108 100 104 102 101 101 99 105 98 74 85 89 91 90 88 84 80
Wind_Direction
279 273 272 265 265 261 267 256 255 255 259 255 255 254 252 251 250 248 245 242 239 238 235 234 232 231 230 230 229 228 227 229 229 235 222 230 233 234 236 238 238 237 246 224 244
274 275 274 270 268 267 264 261 262 256 258 255 252 252 251 252 250 248 248 242 240 240 235 235 233 231 227 229 229 228 223 225 229 234 229 233 232 227 234 238 239 235 238 238 243
277 277 278 277 273 270 268 264 262 259 258 255 253 249 248 249 249 250 249 244 241 240 237 234 234 232 230 227 228 226 223 227 228 233 233 237 223 228 234 234 236 239 236 244 237
283 281 279 277 275 272 268 267 267 265 261 259 253 251 248 248 251 241 246 245 241 240 239 234 234 232 232 229 227 225 223 226 226 224 235 235 232 233 235 226 235 232 236 237 238
281 280 279 278 276 274 272 270 267 264 262 259 259 254 250 249 251 247 246 244 244 240 238 237 233 236 229 230 229 224 226 223 225 219 223 221 234 236 232 236 235 232 237 240 237
288 289 288 287 283 279 277 273 269 265 263 260 258 255 252 251 250 247 245 243 240 241 239 237 234 230 229 229 229 226 225 226 224 219 230 225 236 226 237 233 235 239 242 237 237
294 295 296 297 291 289 288 285 281 277 274 272 257 256 255 252 252 248 242 242 240 235 239 236 234 231 228 227 227 228 227 226 227 220 218 239 218 237 235 236 235 234 233 238 243
298 296 299 300 298 296 290 287 285 282 280 276 272 270 254 252 248 248 244 241 240 236 233 237 233 231 230 228 226 226 228 227 226 222 215 215 217 218 222 226 234 239 231 238 240
298 294 296 294 295 295 292 284 287 279 277 276 271 272 266 257 251 245 243 238 237 235 236 233 234 231 228 227 227 227 227 227 227 221 220 214 217 223 228 217 227 240 234 237 240
299 296 298 297 293 289 290 286 287 288 277 275 269 269 265 262 253 248 241 239 236 235 230 229 232 231 229 228 226 227 226 226 228 224 222 215 219 218 226 218 222 222 228 236 240
302 301 300 299 297 298 294 290 290 296 286 283 276 268 268 261 259 249 242 238 235 234 233 228 228 233 231 228 226 226 224 226 226 226 222 219 219 220 222 228 221 239 224 238 240
306 303 303 302 302 298 300 298 301 299 297 290 292 286 277 271 261 243 242 236 235 232 229 228 224 228 230 229 227 226 224 225 226 225 223 221 218 221 223 216 223 219 226 224 227
309 308 308 307 307 309 314 313 309 308 304 301 298 292 279 262 250 244 232 235 231 229 230 226 221 225 227 227 228 228 225 225 226 224 224 224 220 223 225 221 224 222 219 224 231
313 312 312 315 317 312 313 321 318 314 312 314 314 297 287 262 236 230 228 228 228 227 227 224 226 225 224 226 226 228 228 227 225 224 223 225 221 220 223 225 221 224 225 222 225
318 316 319 314 321 319 328 323 320 318 320 331 311 302 291 263 222 220 222 228 224 225 226 224 226 226 226 226 227 225 228 228 228 224 225 225 224 222 224 223 221 226 224 224 222
322 318 324 325 328 330 328 328 324 323 329 333 319 307 247 267 225 212 218 215 222 222 223 221 223 224 224 225 225 225 224 228 227 226 225 225 225 226 224 224 221 224 224 226 227
324 325 328 330 329 333 332 332 327 321 333 342 320 305 229 224 227 205 211 213 219 218 223 222 224 224 226 225 226 227 225 227 228 230 228 230 224 226 227 224 225 225 225 224 229
326 326 330 332 331 334 334 334 329 335 343 342 325 306 229 214 208 207 213 212 216 218 221 223 220 223 226 227 228 228 227 227 228 228 227 231 229 227 227 223 227 226 228 224 227
332 329 332 332 333 336 335 333 333 339 345 343 344 290 226 222 208 210 210 212 213 214 217 221 219 219 223 226 225 225 226 229 227 225 224 225 227 230 225 225 228 228 226 226 229
328 324 330 329 333 335 334 334 340 340 345 344 347 300 242 219 212 210 213 210 213 214 214 217 220 218 224 228 228 227 225 227 228 228 228 230 231 231 227 225 228 229 228 225 230
328 328 329 332 333 334 336 336 341 342 345 347 353 333 233 223 217 215 218 214 210 213 213 215 218 218 219 224 228 228 228 230 233 227 227 229 227 230 225 228 231 234 232 228 228
327 327 326 331 332 334 336 335 339 343 342 346 348 353 257 227 221 220 223 215 212 212 212 213 217 218 217 220 225 227 225 227 230 226 228 228 234 227 227 228 230 230 230 231 229
323 325 328 328 331 333 333 334 338 340 342 343 345 347 359 232 223 224 223 220 214 216 215 212 217 218 218 219 224 225 227 229 230 229 228 230 238 225 226 230 231 232 233 230 231
327 330 332 332 331 332 334 335 336 337 340 341 345 349 341 273 235 225 225 225 219 217 218 215 217 219 219 218 223 226 225 228 229 230 229 230 235 224 228 231 230 231 234 234 233
331 332 333 332 331 331 332 333 331 335 336 339 341 344 333 347 259 229 226 226 225 222 220 220 219 222 222 220 222 226 225 227 230 229 230 231 236 228 226 229 233 233 233 234 234
331 334 333 332 332 332 331 329 329 333 333 336 337 338 339 323 349 253 227 225 226 224 223 221 219 222 226 225 224 225 225 225 226 228 231 232 236 229 229 232 234 234 235 235 236
333 333 334 332 331 331 330 329 329 331 331 333 336 333 334 338 327 305 249 227 225 225 222 222 221 221 225 227 227 227 228 227 227 227 227 232 233 220 227 227 231 232 233 235 235